Time,TemperatureF,DewpointF,PressureIn,WindDirection,WindDirectionDegrees,WindSpeedMPH,WindSpeedGustMPH,Humidity,HourlyPrecipIn,Conditions,Clouds,dailyrainin,SolarRadiationWatts/m^2,SoftwareType,DateUTC
2013-01-19 00:00:00,20.3,4.6,30.32,SSW,192,4.0,10.0,50,0.00,,OVC021,0.00,0.00,VWS V14.01,2013-01-19 05:00:00,
2013-01-19 00:05:00,20.4,4.7,30.32,South,178,6.0,10.0,50,0.00,,OVC021,0.00,0.00,VWS V14.01,2013-01-19 05:05:00,
2013-01-19 00:10:00,20.6,4.9,30.31,WSW,238,5.0,12.0,50,0.00,,OVC021,0.00,0.00,VWS V14.01,2013-01-19 05:10:00,
2013-01-19 00:15:00,20.7,5.4,30.31,SSW,207,4.0,8.0,51,0.00,,OVC021,0.00,0.00,VWS V14.01,2013-01-19 05:15:00,
2013-01-19 00:20:00,20.9,5.2,30.31,SSW,198,8.0,10.0,50,0.00,,OVC021,0.00,0.00,VWS V14.01,2013-01-19 05:20:00,
2013-01-19 00:25:00,21.0,5.3,30.31,SSW,196,7.0,10.0,50,0.00,,OVC021,0.00,0.00,VWS V14.01,2013-01-19 05:25:00,
2013-01-19 00:30:00,21.0,5.3,30.30,SW,227,2.0,9.0,50,0.00,,OVC021,0.00,0.00,VWS V14.01,2013-01-19 05:30:00,
2013-01-19 00:35:00,21.0,5.3,30.30,SW,215,8.0,9.0,50,0.00,,OVC021,0.00,0.00,VWS V14.01,2013-01-19 05:35:00,
2013-01-19 00:40:00,21.1,5.4,30.31,South,174,5.0,9.0,50,0.00,,OVC021,0.00,0.00,VWS V14.01,2013-01-19 05:40:00,
2013-01-19 00:45:00,21.1,5.8,30.30,SSW,194,5.0,8.0,51,0.00,,OVC021,0.00,0.00,VWS V14.01,2013-01-19 05:45:00,
2013-01-19 00:50:00,21.1,5.8,30.31,SW,232,4.0,7.0,51,0.00,,OVC021,0.00,0.00,VWS V14.01,2013-01-19 05:50:00,
2013-01-19 00:55:00,21.1,5.8,30.30,SSW,194,3.0,8.0,51,0.00,,OVC021,0.00,0.00,VWS V14.01,2013-01-19 05:55:00,
2013-01-19 01:00:00,21.2,5.9,30.30,SSW,209,2.0,8.0,51,0.00,,OVC021,0.00,0.00,VWS V14.01,2013-01-19 06:00:00,
2013-01-19 01:05:00,21.3,6.0,30.30,SSW,192,5.0,8.0,51,0.00,,OVC021,0.00,0.00,VWS V14.01,2013-01-19 06:05:00,
2013-01-19 01:10:00,21.5,6.2,30.28,South,173,11.0,11.0,51,0.00,,OVC021,0.00,0.00,VWS V14.01,2013-01-19 06:10:00,
2013-01-19 01:15:00,21.8,6.9,30.28,SSE,161,7.0,12.0,52,0.00,,OVC021,0.00,0.00,VWS V14.01,2013-01-19 06:15:00,
2013-01-19 01:20:00,22.1,6.7,30.27,South,180,12.0,16.0,51,0.00,,OVC021,0.00,0.00,VWS V14.01,2013-01-19 06:20:00,
2013-01-19 01:25:00,22.2,6.8,30.28,SSW,199,1.0,15.0,51,0.00,,OVC021,0.00,0.00,VWS V14.01,2013-01-19 06:25:00,
2013-01-19 01:30:00,22.3,6.9,30.28,South,187,7.0,12.0,51,0.00,,OVC021,0.00,0.00,VWS V14.01,2013-01-19 06:30:00,
2013-01-19 01:35:00,22.4,7.0,30.28,SSW,197,7.0,12.0,51,0.00,,OVC021,0.00,0.00,VWS V14.01,2013-01-19 06:35:00,
2013-01-19 01:40:00,22.5,7.1,30.28,South,187,7.0,13.0,51,0.00,,OVC021,0.00,0.00,VWS V14.01,2013-01-19 06:40:00,
2013-01-19 01:45:00,22.5,7.6,30.27,South,181,13.0,18.0,52,0.00,,OVC021,0.00,0.00,VWS V14.01,2013-01-19 06:45:00,
2013-01-19 01:50:00,22.6,7.6,30.27,SW,215,7.0,14.0,52,0.00,,OVC021,0.00,0.00,VWS V14.01,2013-01-19 06:50:00,
2013-01-19 01:55:00,22.7,7.7,30.27,SSW,213,5.0,11.0,52,0.00,,OVC021,0.00,0.00,VWS V14.01,2013-01-19 06:55:00,
2013-01-19 02:00:00,22.8,7.8,30.27,SSW,212,6.0,10.0,52,0.00,,OVC021,0.00,0.00,VWS V14.01,2013-01-19 07:00:00,
2013-01-19 02:05:00,22.9,7.9,30.27,South,180,5.0,8.0,52,0.00,,OVC021,0.00,0.00,VWS V14.01,2013-01-19 07:05:00,
2013-01-19 02:10:00,23.0,8.0,30.27,SW,223,9.0,13.0,52,0.00,,OVC021,0.00,0.00,VWS V14.01,2013-01-19 07:10:00,
2013-01-19 02:15:00,23.1,8.1,30.26,SSW,193,7.0,12.0,52,0.00,,OVC021,0.00,0.00,VWS V14.01,2013-01-19 07:15:00,
2013-01-19 02:20:00,23.3,8.3,30.26,South,171,6.0,12.0,52,0.00,,OVC021,0.00,0.00,VWS V14.01,2013-01-19 07:20:00,
2013-01-19 02:25:00,23.5,8.5,30.25,SSW,210,2.0,9.0,52,0.00,,OVC021,0.00,0.00,VWS V14.01,2013-01-19 07:25:00,
2013-01-19 02:30:00,23.6,9.0,30.25,South,186,5.0,11.0,53,0.00,,OVC021,0.00,0.00,VWS V14.01,2013-01-19 07:30:00,
2013-01-19 02:35:00,23.8,9.2,30.25,SSW,202,5.0,12.0,53,0.00,,OVC021,0.00,0.00,VWS V14.01,2013-01-19 07:35:00,
2013-01-19 02:40:00,24.0,9.4,30.24,WSW,244,5.0,13.0,53,0.00,,OVC021,0.00,0.00,VWS V14.01,2013-01-19 07:40:00,
2013-01-19 02:45:00,24.3,9.6,30.24,South,182,6.0,16.0,53,0.00,,OVC021,0.00,0.00,VWS V14.01,2013-01-19 07:45:00,
2013-01-19 02:50:00,24.3,9.6,30.24,SSW,201,10.0,12.0,53,0.00,,OVC021,0.00,0.00,VWS V14.01,2013-01-19 07:50:00,
2013-01-19 02:55:00,24.4,9.7,30.24,SSW,202,6.0,10.0,53,0.00,,OVC021,0.00,0.00,VWS V14.01,2013-01-19 07:55:00,
2013-01-19 03:00:00,24.5,10.2,30.23,SW,219,6.0,14.0,54,0.00,,OVC021,0.00,0.00,VWS V14.01,2013-01-19 08:00:00,
2013-01-19 03:05:00,24.5,10.2,30.23,SSW,208,1.0,11.0,54,0.00,,OVC021,0.00,0.00,VWS V14.01,2013-01-19 08:05:00,
2013-01-19 03:10:00,24.5,10.7,30.23,SW,226,1.0,9.0,55,0.00,,OVC021,0.00,0.00,VWS V14.01,2013-01-19 08:10:00,
2013-01-19 03:15:00,24.6,10.8,30.24,SSW,200,1.0,8.0,55,0.00,,OVC021,0.00,0.00,VWS V14.01,2013-01-19 08:15:00,
2013-01-19 03:20:00,24.6,10.8,30.23,WSW,257,1.0,9.0,55,0.00,,OVC021,0.00,0.00,VWS V14.01,2013-01-19 08:20:00,
2013-01-19 03:25:00,24.7,11.2,30.23,SW,224,1.0,9.0,56,0.00,,OVC021,0.00,0.00,VWS V14.01,2013-01-19 08:25:00,
2013-01-19 03:30:00,24.8,11.3,30.23,SW,225,4.0,10.0,56,0.00,,OVC021,0.00,0.00,VWS V14.01,2013-01-19 08:30:00,
2013-01-19 03:35:00,24.9,11.4,30.22,SW,231,7.0,10.0,56,0.00,,OVC021,0.00,0.00,VWS V14.01,2013-01-19 08:35:00,
2013-01-19 03:40:00,25.0,11.5,30.22,SW,233,3.0,8.0,56,0.00,,OVC021,0.00,0.00,VWS V14.01,2013-01-19 08:40:00,
2013-01-19 03:45:00,25.1,12.0,30.22,SSW,198,6.0,11.0,57,0.00,,OVC021,0.00,0.00,VWS V14.01,2013-01-19 08:45:00,
2013-01-19 03:50:00,25.2,12.1,30.22,SW,232,1.0,6.0,57,0.00,,OVC021,0.00,0.00,VWS V14.01,2013-01-19 08:50:00,
2013-01-19 03:55:00,25.4,12.3,30.21,SSW,201,6.0,10.0,57,0.00,,OVC021,0.00,0.00,VWS V14.01,2013-01-19 08:55:00,
2013-01-19 04:00:00,25.6,12.9,30.21,SW,226,5.0,13.0,58,0.00,,OVC021,0.00,0.00,VWS V14.01,2013-01-19 09:00:00,
2013-01-19 04:05:00,25.7,13.0,30.21,West,261,4.0,11.0,58,0.00,,OVC021,0.00,0.00,VWS V14.01,2013-01-19 09:05:00,
2013-01-19 04:10:00,25.9,13.6,30.20,SSW,212,6.0,10.0,59,0.00,,OVC021,0.00,0.00,VWS V14.01,2013-01-19 09:10:00,
2013-01-19 04:15:00,26.0,13.6,30.20,West,259,2.0,9.0,59,0.00,,OVC021,0.00,0.00,VWS V14.01,2013-01-19 09:15:00,
2013-01-19 04:20:00,26.1,13.8,30.20,WSW,245,2.0,11.0,59,0.00,,OVC021,0.00,0.00,VWS V14.01,2013-01-19 09:20:00,
2013-01-19 04:25:00,26.1,13.8,30.19,SSW,212,13.0,13.0,59,0.00,,OVC021,0.00,0.00,VWS V14.01,2013-01-19 09:25:00,
2013-01-19 04:30:00,26.2,14.2,30.19,SSW,211,3.0,13.0,60,0.00,,OVC021,0.00,0.00,VWS V14.01,2013-01-19 09:30:00,
2013-01-19 04:35:00,26.1,14.1,30.19,SW,221,8.0,11.0,60,0.00,,OVC021,0.00,0.00,VWS V14.01,2013-01-19 09:35:00,
2013-01-19 04:40:00,26.2,14.6,30.18,South,191,5.0,9.0,61,0.00,,OVC021,0.00,0.00,VWS V14.01,2013-01-19 09:40:00,
2013-01-19 04:45:00,26.3,14.7,30.17,South,186,5.0,9.0,61,0.00,,OVC021,0.00,0.00,VWS V14.01,2013-01-19 09:45:00,
2013-01-19 04:50:00,26.4,14.8,30.17,SSW,205,5.0,10.0,61,0.00,,OVC021,0.00,0.00,VWS V14.01,2013-01-19 09:50:00,
2013-01-19 04:55:00,26.5,14.9,30.18,South,175,4.0,8.0,61,0.00,,OVC021,0.00,0.00,VWS V14.01,2013-01-19 09:55:00,
2013-01-19 05:00:00,26.6,15.4,30.17,SW,230,4.0,11.0,62,0.00,,OVC021,0.00,0.00,VWS V14.01,2013-01-19 10:00:00,
2013-01-19 05:05:00,26.7,15.4,30.17,SW,214,4.0,8.0,62,0.00,,OVC021,0.00,0.00,VWS V14.01,2013-01-19 10:05:00,
2013-01-19 05:10:00,26.8,15.5,30.17,SW,220,4.0,7.0,62,0.00,,OVC021,0.00,0.00,VWS V14.01,2013-01-19 10:10:00,
2013-01-19 05:15:00,26.9,16.0,30.17,SSW,204,4.0,7.0,63,0.00,,OVC021,0.00,0.00,VWS V14.01,2013-01-19 10:15:00,
2013-01-19 05:20:00,26.9,16.0,30.17,SW,227,5.0,9.0,63,0.00,,OVC021,0.00,0.00,VWS V14.01,2013-01-19 10:20:00,
2013-01-19 05:25:00,27.0,16.1,30.17,SW,219,6.0,7.0,63,0.00,,OVC021,0.00,0.00,VWS V14.01,2013-01-19 10:25:00,
2013-01-19 05:30:00,27.1,16.2,30.16,SSW,193,2.0,6.0,63,0.00,,OVC021,0.00,0.00,VWS V14.01,2013-01-19 10:30:00,
2013-01-19 05:35:00,27.2,16.3,30.16,SSW,212,4.0,9.0,63,0.00,,OVC021,0.00,0.00,VWS V14.01,2013-01-19 10:35:00,
2013-01-19 05:40:00,27.3,16.4,30.16,SSW,196,4.0,8.0,63,0.00,,OVC021,0.00,0.00,VWS V14.01,2013-01-19 10:40:00,
2013-01-19 05:45:00,27.3,16.8,30.15,SSW,209,0.0,6.0,64,0.00,,OVC021,0.00,0.00,VWS V14.01,2013-01-19 10:45:00,
2013-01-19 05:50:00,27.4,16.5,30.16,SSW,205,1.0,5.0,63,0.00,,OVC021,0.00,0.00,VWS V14.01,2013-01-19 10:50:00,
2013-01-19 05:55:00,27.5,16.9,30.15,WSW,238,4.0,6.0,64,0.00,,OVC021,0.00,0.00,VWS V14.01,2013-01-19 10:55:00,
2013-01-19 06:00:00,27.6,17.0,30.15,WSW,238,4.0,6.0,64,0.00,,OVC021,0.00,0.00,VWS V14.01,2013-01-19 11:00:00,
2013-01-19 06:05:00,27.8,17.2,30.14,SSW,211,6.0,9.0,64,0.00,,OVC021,0.00,0.00,VWS V14.01,2013-01-19 11:05:00,
2013-01-19 06:10:00,28.2,17.2,30.15,SW,232,6.0,9.0,63,0.00,,OVC021,0.00,0.00,VWS V14.01,2013-01-19 11:10:00,
2013-01-19 06:15:00,28.3,17.3,30.16,SW,218,3.0,8.0,63,0.00,,OVC021,0.00,0.00,VWS V14.01,2013-01-19 11:15:00,
2013-01-19 06:20:00,28.7,17.3,30.15,SW,222,5.0,8.0,62,0.00,,OVC021,0.00,0.00,VWS V14.01,2013-01-19 11:20:00,
2013-01-19 06:25:00,28.9,17.5,30.14,SW,218,7.0,9.0,62,0.00,,OVC021,0.00,0.00,VWS V14.01,2013-01-19 11:25:00,
2013-01-19 06:30:00,29.2,17.8,30.14,SW,222,6.0,10.0,62,0.00,,OVC021,0.00,0.00,VWS V14.01,2013-01-19 11:30:00,
2013-01-19 06:35:00,29.6,17.8,30.14,SW,216,5.0,13.0,61,0.00,,OVC021,0.00,0.00,VWS V14.01,2013-01-19 11:35:00,
2013-01-19 06:40:00,29.9,18.1,30.14,WSW,246,4.0,17.0,61,0.00,,OVC021,0.00,0.00,VWS V14.01,2013-01-19 11:40:00,
2013-01-19 06:45:00,30.0,18.2,30.14,South,190,7.0,12.0,61,0.00,,OVC021,0.00,0.00,VWS V14.01,2013-01-19 11:45:00,
2013-01-19 06:50:00,30.2,18.4,30.13,WSW,242,4.0,13.0,61,0.00,,OVC021,0.00,0.00,VWS V14.01,2013-01-19 11:50:00,
2013-01-19 06:55:00,30.2,18.4,30.13,South,182,10.0,11.0,61,0.00,,OVC021,0.00,0.00,VWS V14.01,2013-01-19 11:55:00,
2013-01-19 07:00:00,30.3,18.5,30.13,WSW,248,2.0,13.0,61,0.00,,OVC021,0.00,0.00,VWS V14.01,2013-01-19 12:00:00,
2013-01-19 07:05:00,30.4,18.6,30.13,SSW,195,9.0,11.0,61,0.00,,OVC021,0.00,0.00,VWS V14.01,2013-01-19 12:05:00,
2013-01-19 07:10:00,30.6,18.8,30.13,WSW,240,8.0,13.0,61,0.00,,OVC021,0.00,9.00,VWS V14.01,2013-01-19 12:10:00,
2013-01-19 07:15:00,30.7,18.9,30.13,SW,232,4.0,16.0,61,0.00,,OVC021,0.00,12.00,VWS V14.01,2013-01-19 12:15:00,
2013-01-19 07:20:00,30.7,18.9,30.12,WSW,252,9.0,12.0,61,0.00,,OVC021,0.00,18.00,VWS V14.01,2013-01-19 12:20:00,
2013-01-19 07:25:00,30.9,19.0,30.12,SSW,201,9.0,12.0,61,0.00,,OVC021,0.00,26.00,VWS V14.01,2013-01-19 12:25:00,
2013-01-19 07:30:00,31.0,19.1,30.12,SW,224,6.0,17.0,61,0.00,,OVC021,0.00,30.00,VWS V14.01,2013-01-19 12:30:00,
2013-01-19 07:35:00,31.2,19.3,30.12,SW,219,10.0,16.0,61,0.00,,OVC021,0.00,44.00,VWS V14.01,2013-01-19 12:35:00,
2013-01-19 07:40:00,31.5,19.6,30.12,West,265,7.0,18.0,61,0.00,,OVC021,0.00,58.00,VWS V14.01,2013-01-19 12:40:00,
2013-01-19 07:45:00,31.8,19.9,30.11,South,187,5.0,19.0,61,0.00,,OVC021,0.00,69.00,VWS V14.01,2013-01-19 12:45:00,
2013-01-19 07:50:00,32.0,20.1,30.12,SW,236,11.0,19.0,61,0.00,,OVC021,0.00,79.00,VWS V14.01,2013-01-19 12:50:00,
2013-01-19 07:55:00,32.2,20.3,30.12,SW,219,9.0,17.0,61,0.00,,OVC021,0.00,86.00,VWS V14.01,2013-01-19 12:55:00,
2013-01-19 08:00:00,32.3,20.4,30.12,West,265,5.0,19.0,61,0.00,,OVC021,0.00,97.00,VWS V14.01,2013-01-19 13:00:00,
2013-01-19 08:05:00,32.5,20.6,30.12,SW,232,4.0,17.0,61,0.00,,OVC021,0.00,113.00,VWS V14.01,2013-01-19 13:05:00,
2013-01-19 08:10:00,32.7,20.8,30.11,SW,217,5.0,21.0,61,0.00,,OVC021,0.00,113.00,VWS V14.01,2013-01-19 13:10:00,
2013-01-19 08:15:00,32.8,20.8,30.11,SSW,196,9.0,19.0,61,0.00,,OVC021,0.00,125.00,VWS V14.01,2013-01-19 13:15:00,
2013-01-19 08:20:00,32.9,20.9,30.11,South,179,6.0,19.0,61,0.00,,OVC021,0.00,142.00,VWS V14.01,2013-01-19 13:20:00,
2013-01-19 08:25:00,33.1,21.1,30.11,SW,233,11.0,21.0,61,0.00,,OVC021,0.00,151.00,VWS V14.01,2013-01-19 13:25:00,
2013-01-19 08:30:00,33.3,21.3,30.11,SW,227,17.0,19.0,61,0.00,,OVC021,0.00,169.00,VWS V14.01,2013-01-19 13:30:00,
2013-01-19 08:35:00,33.4,21.4,30.11,WNW,283,4.0,17.0,61,0.00,,OVC021,0.00,192.00,VWS V14.01,2013-01-19 13:35:00,
2013-01-19 08:40:00,33.7,21.7,30.11,SSW,207,8.0,19.0,61,0.00,,OVC021,0.00,209.00,VWS V14.01,2013-01-19 13:40:00,
2013-01-19 08:45:00,33.9,21.9,30.11,SW,224,13.0,17.0,61,0.00,,OVC021,0.00,234.00,VWS V14.01,2013-01-19 13:45:00,
2013-01-19 08:50:00,34.2,22.2,30.10,South,180,12.0,21.0,61,0.00,,OVC021,0.00,264.00,VWS V14.01,2013-01-19 13:50:00,
2013-01-19 08:55:00,34.5,22.5,30.11,SSW,192,4.0,24.0,61,0.00,,OVC021,0.00,318.00,VWS V14.01,2013-01-19 13:55:00,
2013-01-19 09:00:00,34.7,22.2,30.11,SW,232,7.0,23.0,60,0.00,,OVC021,0.00,202.00,VWS V14.01,2013-01-19 14:00:00,
2013-01-19 09:05:00,34.8,22.3,30.11,SW,219,5.0,20.0,60,0.00,,OVC021,0.00,221.00,VWS V14.01,2013-01-19 14:05:00,
2013-01-19 09:10:00,35.0,22.5,30.11,WSW,252,10.0,23.0,60,0.00,,OVC021,0.00,172.00,VWS V14.01,2013-01-19 14:10:00,
2013-01-19 09:15:00,35.0,22.5,30.11,SW,225,8.0,19.0,60,0.00,,OVC021,0.00,156.00,VWS V14.01,2013-01-19 14:15:00,
2013-01-19 09:20:00,35.1,23.0,30.10,WSW,244,11.0,20.0,61,0.00,,OVC021,0.00,153.00,VWS V14.01,2013-01-19 14:20:00,
2013-01-19 09:25:00,35.3,23.2,30.10,WSW,249,10.0,21.0,61,0.00,,OVC021,0.00,151.00,VWS V14.01,2013-01-19 14:25:00,
2013-01-19 09:30:00,35.5,23.4,30.11,West,269,10.0,17.0,61,0.00,,OVC021,0.00,167.00,VWS V14.01,2013-01-19 14:30:00,
2013-01-19 09:35:00,35.7,23.6,30.10,SW,215,7.0,17.0,61,0.00,,OVC021,0.00,165.00,VWS V14.01,2013-01-19 14:35:00,
2013-01-19 09:40:00,35.9,23.8,30.10,SW,224,7.0,16.0,61,0.00,,OVC021,0.00,148.00,VWS V14.01,2013-01-19 14:40:00,
2013-01-19 09:45:00,36.0,23.5,30.10,SW,228,14.0,24.0,60,0.00,,OVC021,0.00,149.00,VWS V14.01,2013-01-19 14:45:00,
2013-01-19 09:50:00,36.1,23.6,30.10,West,272,10.0,23.0,60,0.00,,OVC021,0.00,197.00,VWS V14.01,2013-01-19 14:50:00,
2013-01-19 09:55:00,36.4,23.9,30.10,SW,219,11.0,20.0,60,0.00,,OVC021,0.00,197.00,VWS V14.01,2013-01-19 14:55:00,
2013-01-19 10:00:00,36.6,24.0,30.09,WSW,251,10.0,20.0,60,0.00,,OVC021,0.00,230.00,VWS V14.01,2013-01-19 15:00:00,
2013-01-19 10:05:00,36.9,24.3,30.09,SSW,208,4.0,19.0,60,0.00,,OVC021,0.00,179.00,VWS V14.01,2013-01-19 15:05:00,
2013-01-19 10:10:00,37.0,24.0,30.09,West,277,11.0,20.0,59,0.00,,OVC021,0.00,163.00,VWS V14.01,2013-01-19 15:10:00,
2013-01-19 10:15:00,37.1,24.1,30.09,SSW,199,12.0,21.0,59,0.00,,OVC021,0.00,146.00,VWS V14.01,2013-01-19 15:15:00,
2013-01-19 10:20:00,37.2,24.2,30.08,WSW,248,13.0,17.0,59,0.00,,OVC021,0.00,149.00,VWS V14.01,2013-01-19 15:20:00,
2013-01-19 10:25:00,37.4,24.4,30.08,SSW,205,6.0,18.0,59,0.00,,OVC021,0.00,149.00,VWS V14.01,2013-01-19 15:25:00,
2013-01-19 10:30:00,37.5,24.5,30.08,WNW,300,6.0,17.0,59,0.00,,OVC021,0.00,156.00,VWS V14.01,2013-01-19 15:30:00,
2013-01-19 10:35:00,37.7,24.7,30.08,WSW,244,12.0,17.0,59,0.00,,OVC021,0.00,151.00,VWS V14.01,2013-01-19 15:35:00,
2013-01-19 10:40:00,37.9,24.5,30.07,WNW,288,7.0,23.0,58,0.00,,OVC021,0.00,149.00,VWS V14.01,2013-01-19 15:40:00,
2013-01-19 10:45:00,38.1,24.6,30.07,SW,229,5.0,16.0,58,0.00,,OVC021,0.00,134.00,VWS V14.01,2013-01-19 15:45:00,
2013-01-19 10:50:00,38.2,24.7,30.06,SW,227,6.0,11.0,58,0.00,,OVC021,0.00,120.00,VWS V14.01,2013-01-19 15:50:00,
2013-01-19 10:55:00,38.3,24.4,30.06,SW,221,12.0,21.0,57,0.00,,OVC021,0.00,123.00,VWS V14.01,2013-01-19 15:55:00,
2013-01-19 11:00:00,38.5,24.2,30.05,SW,220,6.0,16.0,56,0.00,,OVC021,0.00,130.00,VWS V14.01,2013-01-19 16:00:00,
2013-01-19 11:05:00,38.7,24.4,30.05,SSW,198,9.0,14.0,56,0.00,,OVC021,0.00,116.00,VWS V14.01,2013-01-19 16:05:00,
2013-01-19 11:10:00,38.8,24.0,30.04,SW,222,6.0,18.0,55,0.00,,OVC021,0.00,90.00,VWS V14.01,2013-01-19 16:10:00,
2013-01-19 11:15:00,38.9,24.1,30.03,WSW,250,5.0,21.0,55,0.00,,OVC021,0.00,88.00,VWS V14.01,2013-01-19 16:15:00,
2013-01-19 11:20:00,39.0,24.2,30.03,South,190,7.0,16.0,55,0.00,,OVC021,0.00,139.00,VWS V14.01,2013-01-19 16:20:00,
2013-01-19 11:25:00,39.3,24.1,30.02,WNW,289,7.0,23.0,54,0.00,,OVC021,0.00,357.00,VWS V14.01,2013-01-19 16:25:00,
2013-01-19 11:30:00,39.9,24.2,30.02,WSW,253,10.0,17.0,53,0.00,,OVC021,0.00,179.00,VWS V14.01,2013-01-19 16:30:00,
2013-01-19 11:35:00,40.1,23.9,30.02,WSW,238,8.0,21.0,52,0.00,,OVC021,0.00,128.00,VWS V14.01,2013-01-19 16:35:00,
2013-01-19 11:40:00,40.2,24.0,30.01,SW,232,7.0,15.0,52,0.00,,OVC021,0.00,111.00,VWS V14.01,2013-01-19 16:40:00,
2013-01-19 11:45:00,40.2,24.0,30.01,WSW,246,10.0,14.0,52,0.00,,OVC021,0.00,132.00,VWS V14.01,2013-01-19 16:45:00,
2013-01-19 11:50:00,40.4,23.7,30.00,West,264,9.0,18.0,51,0.00,,OVC021,0.00,141.00,VWS V14.01,2013-01-19 16:50:00,
2013-01-19 11:55:00,40.5,23.8,30.00,WSW,243,6.0,15.0,51,0.00,,OVC021,0.00,141.00,VWS V14.01,2013-01-19 16:55:00,
2013-01-19 12:00:00,40.8,23.6,30.00,West,261,9.0,14.0,50,0.00,,OVC021,0.00,135.00,VWS V14.01,2013-01-19 17:00:00,
2013-01-19 12:05:00,41.0,23.8,29.99,SSW,208,8.0,15.0,50,0.00,,OVC021,0.00,153.00,VWS V14.01,2013-01-19 17:05:00,
2013-01-19 12:10:00,41.3,24.1,29.99,West,267,13.0,16.0,50,0.00,,OVC021,0.00,163.00,VWS V14.01,2013-01-19 17:10:00,
2013-01-19 12:15:00,41.6,23.4,29.99,West,265,18.0,18.0,48,0.00,,OVC021,0.00,148.00,VWS V14.01,2013-01-19 17:15:00,
2013-01-19 12:20:00,41.8,23.6,29.98,West,265,10.0,21.0,48,0.00,,OVC021,0.00,207.00,VWS V14.01,2013-01-19 17:20:00,
2013-01-19 12:25:00,42.0,23.8,29.98,WSW,243,5.0,19.0,48,0.00,,OVC021,0.00,127.00,VWS V14.01,2013-01-19 17:25:00,
2013-01-19 12:30:00,42.2,23.9,29.98,WSW,240,3.0,15.0,48,0.00,,OVC021,0.00,162.00,VWS V14.01,2013-01-19 17:30:00,
2013-01-19 12:35:00,42.4,23.6,29.98,WNW,282,3.0,16.0,47,0.00,,OVC021,0.00,202.00,VWS V14.01,2013-01-19 17:35:00,
2013-01-19 12:40:00,42.6,23.8,29.97,SW,234,11.0,12.0,47,0.00,,OVC021,0.00,200.00,VWS V14.01,2013-01-19 17:40:00,
2013-01-19 12:45:00,42.8,24.0,29.97,WSW,246,5.0,14.0,47,0.00,,OVC021,0.00,195.00,VWS V14.01,2013-01-19 17:45:00,
2013-01-19 12:50:00,42.9,23.6,29.97,WSW,246,8.0,13.0,46,0.00,,OVC021,0.00,202.00,VWS V14.01,2013-01-19 17:50:00,
2013-01-19 12:55:00,43.2,23.8,29.96,WSW,241,8.0,14.0,46,0.00,,OVC021,0.00,209.00,VWS V14.01,2013-01-19 17:55:00,
2013-01-19 13:00:00,43.6,23.1,29.97,SW,236,8.0,21.0,44,0.00,,OVC021,0.00,197.00,VWS V14.01,2013-01-19 18:00:00,
2013-01-19 13:05:00,44.0,24.0,29.96,SW,215,8.0,19.0,45,0.00,,OVC021,0.00,162.00,VWS V14.01,2013-01-19 18:05:00,
2013-01-19 13:10:00,44.3,23.8,29.96,WSW,248,5.0,14.0,44,0.00,,OVC021,0.00,132.00,VWS V14.01,2013-01-19 18:10:00,
2013-01-19 13:15:00,44.5,23.4,29.96,SW,234,5.0,18.0,43,0.00,,OVC021,0.00,93.00,VWS V14.01,2013-01-19 18:15:00,
2013-01-19 13:20:00,44.7,23.6,29.96,WSW,242,10.0,21.0,43,0.00,,OVC021,0.00,56.00,VWS V14.01,2013-01-19 18:20:00,
2013-01-19 13:25:00,45.1,24.0,29.95,SW,217,3.0,14.0,43,0.00,,OVC021,0.00,54.00,VWS V14.01,2013-01-19 18:25:00,
2013-01-19 13:30:00,45.6,24.4,29.95,SSW,205,4.0,17.0,43,0.00,,OVC021,0.00,79.00,VWS V14.01,2013-01-19 18:30:00,
2013-01-19 13:35:00,45.6,23.3,29.95,West,269,13.0,23.0,41,0.00,,OVC021,0.00,91.00,VWS V14.01,2013-01-19 18:35:00,
2013-01-19 13:40:00,45.5,23.8,29.94,West,278,9.0,21.0,42,0.00,,OVC021,0.00,93.00,VWS V14.01,2013-01-19 18:40:00,
2013-01-19 13:45:00,45.6,23.9,29.95,SW,235,16.0,20.0,42,0.00,,OVC021,0.00,114.00,VWS V14.01,2013-01-19 18:45:00,
2013-01-19 13:50:00,45.5,23.8,29.94,West,273,16.0,24.0,42,0.00,,OVC021,0.00,123.00,VWS V14.01,2013-01-19 18:50:00,
2013-01-19 13:55:00,45.8,24.0,29.94,WSW,245,4.0,17.0,42,0.00,,OVC021,0.00,98.00,VWS V14.01,2013-01-19 18:55:00,
2013-01-19 14:00:00,46.2,23.8,29.94,WSW,238,7.0,14.0,41,0.00,,OVC021,0.00,88.00,VWS V14.01,2013-01-19 19:00:00,
2013-01-19 14:05:00,46.2,24.4,29.94,SSW,210,5.0,20.0,42,0.00,,OVC021,0.00,83.00,VWS V14.01,2013-01-19 19:05:00,
2013-01-19 14:10:00,46.4,24.0,29.94,WSW,244,9.0,18.0,41,0.00,,OVC021,0.00,84.00,VWS V14.01,2013-01-19 19:10:00,
2013-01-19 14:15:00,46.3,23.9,29.93,SW,221,7.0,22.0,41,0.00,,OVC021,0.00,95.00,VWS V14.01,2013-01-19 19:15:00,
2013-01-19 14:20:00,46.4,24.0,29.94,West,270,13.0,22.0,41,0.00,,OVC021,0.00,90.00,VWS V14.01,2013-01-19 19:20:00,
2013-01-19 14:25:00,46.2,23.2,29.93,SSW,193,8.0,24.0,40,0.00,,OVC021,0.00,88.00,VWS V14.01,2013-01-19 19:25:00,
2013-01-19 14:30:00,46.3,23.3,29.94,SW,214,11.0,21.0,40,0.00,,OVC021,0.00,95.00,VWS V14.01,2013-01-19 19:30:00,
2013-01-19 14:35:00,46.5,24.1,29.93,WSW,257,9.0,20.0,41,0.00,,OVC021,0.00,105.00,VWS V14.01,2013-01-19 19:35:00,
2013-01-19 14:40:00,46.4,23.4,29.93,West,265,16.0,26.0,40,0.00,,OVC021,0.00,120.00,VWS V14.01,2013-01-19 19:40:00,
2013-01-19 14:45:00,46.5,23.5,29.93,SW,217,7.0,24.0,40,0.00,,OVC021,0.00,141.00,VWS V14.01,2013-01-19 19:45:00,
2013-01-19 14:50:00,46.5,23.5,29.93,SW,218,17.0,21.0,40,0.00,,OVC021,0.00,178.00,VWS V14.01,2013-01-19 19:50:00,
2013-01-19 14:55:00,46.4,23.4,29.93,SW,235,13.0,20.0,40,0.00,,OVC021,0.00,216.00,VWS V14.01,2013-01-19 19:55:00,
2013-01-19 15:00:00,46.4,24.0,29.92,SW,226,10.0,16.0,41,0.00,,OVC021,0.00,223.00,VWS V14.01,2013-01-19 20:00:00,
2013-01-19 15:05:00,46.5,24.1,29.92,WSW,252,7.0,18.0,41,0.00,,OVC021,0.00,216.00,VWS V14.01,2013-01-19 20:05:00,
2013-01-19 15:10:00,46.4,23.4,29.92,SW,227,12.0,19.0,40,0.00,,OVC021,0.00,188.00,VWS V14.01,2013-01-19 20:10:00,
2013-01-19 15:15:00,46.3,23.9,29.93,WSW,242,3.0,22.0,41,0.00,,OVC021,0.00,171.00,VWS V14.01,2013-01-19 20:15:00,
2013-01-19 15:20:00,46.1,23.7,29.93,WNW,284,6.0,16.0,41,0.00,,OVC021,0.00,148.00,VWS V14.01,2013-01-19 20:20:00,
2013-01-19 15:25:00,46.0,23.6,29.93,WSW,257,10.0,22.0,41,0.00,,OVC021,0.00,153.00,VWS V14.01,2013-01-19 20:25:00,
2013-01-19 15:30:00,46.0,23.6,29.93,SSW,203,7.0,15.0,41,0.00,,OVC021,0.00,111.00,VWS V14.01,2013-01-19 20:30:00,
2013-01-19 15:35:00,45.9,24.1,29.93,WSW,257,12.0,17.0,42,0.00,,OVC021,0.00,70.00,VWS V14.01,2013-01-19 20:35:00,
2013-01-19 15:40:00,45.5,23.8,29.93,SSW,196,6.0,17.0,42,0.00,,OVC021,0.00,81.00,VWS V14.01,2013-01-19 20:40:00,
2013-01-19 15:45:00,45.4,23.7,29.93,SW,220,9.0,17.0,42,0.00,,OVC021,0.00,77.00,VWS V14.01,2013-01-19 20:45:00,
2013-01-19 15:50:00,45.2,24.0,29.93,West,277,12.0,16.0,43,0.00,,OVC021,0.00,67.00,VWS V14.01,2013-01-19 20:50:00,
2013-01-19 15:55:00,45.3,24.1,29.93,SW,227,4.0,19.0,43,0.00,,OVC021,0.00,72.00,VWS V14.01,2013-01-19 20:55:00,
2013-01-19 16:00:00,45.3,24.1,29.93,WNW,287,5.0,10.0,43,0.00,,OVC021,0.00,54.00,VWS V14.01,2013-01-19 21:00:00,
2013-01-19 16:05:00,45.2,24.0,29.93,SW,215,12.0,13.0,43,0.00,,OVC021,0.00,46.00,VWS V14.01,2013-01-19 21:05:00,
2013-01-19 16:10:00,45.0,23.9,29.93,SW,233,5.0,17.0,43,0.00,,OVC021,0.00,35.00,VWS V14.01,2013-01-19 21:10:00,
2013-01-19 16:15:00,44.9,24.3,29.93,SW,224,6.0,14.0,44,0.00,,OVC021,0.00,30.00,VWS V14.01,2013-01-19 21:15:00,
2013-01-19 16:20:00,44.7,24.1,29.93,WSW,248,9.0,19.0,44,0.00,,OVC021,0.00,25.00,VWS V14.01,2013-01-19 21:20:00,
2013-01-19 16:25:00,44.4,23.9,29.93,SW,225,5.0,16.0,44,0.00,,OVC021,0.00,21.00,VWS V14.01,2013-01-19 21:25:00,
2013-01-19 16:30:00,44.2,24.2,29.93,West,261,4.0,11.0,45,0.00,,OVC021,0.00,16.00,VWS V14.01,2013-01-19 21:30:00,
2013-01-19 16:35:00,44.0,24.0,29.93,West,262,5.0,8.0,45,0.00,,OVC021,0.00,12.00,VWS V14.01,2013-01-19 21:35:00,
2013-01-19 16:40:00,43.9,24.0,29.93,WSW,245,6.0,18.0,45,0.00,,OVC021,0.00,11.00,VWS V14.01,2013-01-19 21:40:00,
2013-01-19 16:45:00,43.8,23.9,29.93,West,264,8.0,17.0,45,0.00,,OVC021,0.00,9.00,VWS V14.01,2013-01-19 21:45:00,
2013-01-19 16:50:00,43.6,24.2,29.93,West,272,5.0,11.0,46,0.00,,OVC021,0.00,5.00,VWS V14.01,2013-01-19 21:50:00,
2013-01-19 16:55:00,43.4,24.0,29.93,SW,224,6.0,11.0,46,0.00,,OVC021,0.00,0.00,VWS V14.01,2013-01-19 21:55:00,
2013-01-19 17:00:00,43.2,23.8,29.93,SW,223,5.0,18.0,46,0.00,,OVC021,0.00,0.00,VWS V14.01,2013-01-19 22:00:00,
2013-01-19 17:05:00,43.1,24.3,29.93,SW,227,6.0,14.0,47,0.00,,OVC021,0.00,0.00,VWS V14.01,2013-01-19 22:05:00,
2013-01-19 17:10:00,43.0,24.2,29.93,WSW,258,4.0,9.0,47,0.00,,OVC021,0.00,0.00,VWS V14.01,2013-01-19 22:10:00,
2013-01-19 17:15:00,42.8,24.0,29.93,South,180,7.0,9.0,47,0.00,,OVC021,0.00,0.00,VWS V14.01,2013-01-19 22:15:00,
2013-01-19 17:20:00,42.7,24.4,29.93,WSW,257,2.0,12.0,48,0.00,,OVC021,0.00,0.00,VWS V14.01,2013-01-19 22:20:00,
2013-01-19 17:25:00,42.4,24.1,29.93,SW,223,6.0,9.0,48,0.00,,OVC021,0.00,0.00,VWS V14.01,2013-01-19 22:25:00,
2013-01-19 17:30:00,42.3,24.5,29.93,WSW,250,1.0,11.0,49,0.00,,OVC021,0.00,0.00,VWS V14.01,2013-01-19 22:30:00,
2013-01-19 17:35:00,42.2,24.4,29.93,SW,221,2.0,9.0,49,0.00,,OVC021,0.00,0.00,VWS V14.01,2013-01-19 22:35:00,
2013-01-19 17:40:00,42.2,24.4,29.93,WSW,251,4.0,11.0,49,0.00,,OVC021,0.00,0.00,VWS V14.01,2013-01-19 22:40:00,
2013-01-19 17:45:00,42.0,24.7,29.93,SSW,209,4.0,8.0,50,0.00,,OVC021,0.00,0.00,VWS V14.01,2013-01-19 22:45:00,
2013-01-19 17:50:00,41.9,24.6,29.93,WSW,238,1.0,8.0,50,0.00,,OVC021,0.00,0.00,VWS V14.01,2013-01-19 22:50:00,
2013-01-19 17:55:00,41.8,24.5,29.93,South,190,6.0,8.0,50,0.00,,OVC021,0.00,0.00,VWS V14.01,2013-01-19 22:55:00,
2013-01-19 18:00:00,41.7,24.5,29.93,SSW,201,7.0,11.0,50,0.00,,OVC021,0.00,0.00,VWS V14.01,2013-01-19 23:00:00,
2013-01-19 18:05:00,41.7,24.5,29.93,SW,221,6.0,8.0,50,0.00,,OVC021,0.00,0.00,VWS V14.01,2013-01-19 23:05:00,
2013-01-19 18:10:00,41.7,24.5,29.93,SSW,209,7.0,8.0,50,0.00,,OVC021,0.00,0.00,VWS V14.01,2013-01-19 23:10:00,
2013-01-19 18:15:00,41.6,24.8,29.93,WSW,239,3.0,11.0,51,0.00,,OVC021,0.00,0.00,VWS V14.01,2013-01-19 23:15:00,
2013-01-19 18:20:00,41.5,24.7,29.93,SSW,205,4.0,9.0,51,0.00,,OVC021,0.00,0.00,VWS V14.01,2013-01-19 23:20:00,
2013-01-19 18:25:00,41.4,24.6,29.93,WSW,244,2.0,7.0,51,0.00,,OVC021,0.00,0.00,VWS V14.01,2013-01-19 23:25:00,
2013-01-19 18:30:00,41.3,24.5,29.93,SW,229,1.0,6.0,51,0.00,,OVC021,0.00,0.00,VWS V14.01,2013-01-19 23:30:00,
2013-01-19 18:35:00,41.1,24.8,29.93,SW,230,4.0,6.0,52,0.00,,OVC021,0.00,0.00,VWS V14.01,2013-01-19 23:35:00,
2013-01-19 18:40:00,41.1,24.8,29.93,SSW,213,1.0,7.0,52,0.00,,OVC021,0.00,0.00,VWS V14.01,2013-01-19 23:40:00,
2013-01-19 18:45:00,41.1,24.8,29.93,SW,217,4.0,7.0,52,0.00,,OVC021,0.00,0.00,VWS V14.01,2013-01-19 23:45:00,
2013-01-19 18:50:00,41.1,24.8,29.93,WSW,241,3.0,9.0,52,0.00,,OVC021,0.00,0.00,VWS V14.01,2013-01-19 23:50:00,
2013-01-19 18:55:00,41.1,24.8,29.93,SW,215,1.0,8.0,52,0.00,,OVC021,0.00,0.00,VWS V14.01,2013-01-19 23:55:00,
2013-01-19 19:00:00,41.1,24.8,29.93,SSW,197,3.0,6.0,52,0.00,,OVC021,0.00,0.00,VWS V14.01,2013-01-20 00:00:00,
2013-01-19 19:05:00,40.9,24.6,29.93,SSW,192,4.0,4.0,52,0.00,,OVC021,0.00,0.00,VWS V14.01,2013-01-20 00:05:00,
2013-01-19 19:10:00,40.9,24.6,29.93,SW,215,4.0,7.0,52,0.00,,OVC021,0.00,0.00,VWS V14.01,2013-01-20 00:10:00,
2013-01-19 19:15:00,40.8,24.5,29.93,SW,215,2.0,4.0,52,0.00,,OVC021,0.00,0.00,VWS V14.01,2013-01-20 00:15:00,
2013-01-19 19:20:00,40.6,24.8,29.93,SW,219,2.0,4.0,53,0.00,,OVC021,0.00,0.00,VWS V14.01,2013-01-20 00:20:00,
2013-01-19 19:25:00,40.4,25.1,29.93,South,186,4.0,5.0,54,0.00,,OVC021,0.00,0.00,VWS V14.01,2013-01-20 00:25:00,
2013-01-19 19:30:00,40.2,24.9,29.92,South,186,0.0,4.0,54,0.00,,OVC021,0.00,0.00,VWS V14.01,2013-01-20 00:30:00,
2013-01-19 19:35:00,39.8,25.0,29.92,South,186,1.0,4.0,55,0.00,,OVC021,0.00,0.00,VWS V14.01,2013-01-20 00:35:00,
2013-01-19 19:40:00,39.5,25.1,29.92,South,186,3.0,4.0,56,0.00,,OVC021,0.00,0.00,VWS V14.01,2013-01-20 00:40:00,
2013-01-19 19:45:00,39.5,25.1,29.92,South,178,4.0,7.0,56,0.00,,OVC021,0.00,0.00,VWS V14.01,2013-01-20 00:45:00,
2013-01-19 19:50:00,39.5,25.1,29.92,SSW,192,2.0,5.0,56,0.00,,OVC021,0.00,0.00,VWS V14.01,2013-01-20 00:50:00,
2013-01-19 19:55:00,39.4,25.5,29.92,South,182,4.0,4.0,57,0.00,,OVC021,0.00,0.00,VWS V14.01,2013-01-20 00:55:00,
2013-01-19 20:00:00,39.3,25.4,29.92,SSW,198,3.0,6.0,57,0.00,,OVC021,0.00,0.00,VWS V14.01,2013-01-20 01:00:00,
2013-01-19 20:05:00,39.4,25.9,29.92,SW,229,4.0,6.0,58,0.00,,OVC021,0.00,0.00,VWS V14.01,2013-01-20 01:05:00,
2013-01-19 20:10:00,39.3,25.8,29.92,SSW,208,3.0,6.0,58,0.00,,OVC021,0.00,0.00,VWS V14.01,2013-01-20 01:10:00,
2013-01-19 20:15:00,39.3,26.2,29.92,SSW,202,3.0,4.0,59,0.00,,OVC021,0.00,0.00,VWS V14.01,2013-01-20 01:15:00,
2013-01-19 20:20:00,39.3,26.2,29.92,South,191,4.0,7.0,59,0.00,,OVC021,0.00,0.00,VWS V14.01,2013-01-20 01:20:00,
2013-01-19 20:25:00,39.2,26.5,29.91,SSW,209,5.0,6.0,60,0.00,,OVC021,0.00,0.00,VWS V14.01,2013-01-20 01:25:00,
2013-01-19 20:30:00,39.1,26.8,29.91,SW,236,2.0,7.0,61,0.00,,OVC021,0.00,0.00,VWS V14.01,2013-01-20 01:30:00,
2013-01-19 20:35:00,39.1,27.2,29.91,SSW,211,3.0,9.0,62,0.00,,OVC021,0.00,0.00,VWS V14.01,2013-01-20 01:35:00,
2013-01-19 20:40:00,39.1,27.2,29.91,SW,219,4.0,8.0,62,0.00,,OVC021,0.00,0.00,VWS V14.01,2013-01-20 01:40:00,
2013-01-19 20:45:00,39.1,27.6,29.91,SSW,202,6.0,7.0,63,0.00,,OVC021,0.00,0.00,VWS V14.01,2013-01-20 01:45:00,
2013-01-19 20:50:00,39.0,27.9,29.90,SSW,205,8.0,8.0,64,0.00,,OVC021,0.00,0.00,VWS V14.01,2013-01-20 01:50:00,
2013-01-19 20:55:00,39.1,28.0,29.90,SSW,207,3.0,9.0,64,0.00,,OVC021,0.00,0.00,VWS V14.01,2013-01-20 01:55:00,
2013-01-19 21:00:00,39.0,27.9,29.90,South,176,8.0,8.0,64,0.00,,OVC021,0.00,0.00,VWS V14.01,2013-01-20 02:00:00,
2013-01-19 21:05:00,39.0,28.2,29.90,South,180,7.0,12.0,65,0.00,,OVC021,0.00,0.00,VWS V14.01,2013-01-20 02:05:00,
2013-01-19 21:10:00,38.8,28.4,29.90,SW,215,7.0,8.0,66,0.00,,OVC021,0.00,0.00,VWS V14.01,2013-01-20 02:10:00,
2013-01-19 21:15:00,38.6,28.6,29.89,WSW,237,8.0,9.0,67,0.00,,OVC021,0.00,0.00,VWS V14.01,2013-01-20 02:15:00,
2013-01-19 21:20:00,38.5,28.5,29.89,South,179,4.0,8.0,67,0.00,,OVC021,0.00,0.00,VWS V14.01,2013-01-20 02:20:00,
2013-01-19 21:25:00,38.4,28.8,29.89,SSW,213,4.0,7.0,68,0.00,,OVC021,0.00,0.00,VWS V14.01,2013-01-20 02:25:00,
2013-01-19 21:30:00,38.4,28.8,29.89,SSW,200,8.0,9.0,68,0.00,,OVC021,0.00,0.00,VWS V14.01,2013-01-20 02:30:00,
2013-01-19 21:35:00,38.4,29.1,29.89,South,191,5.0,8.0,69,0.00,,OVC021,0.00,0.00,VWS V14.01,2013-01-20 02:35:00,
2013-01-19 21:40:00,38.4,29.1,29.89,SSW,202,5.0,6.0,69,0.00,,OVC021,0.00,0.00,VWS V14.01,2013-01-20 02:40:00,
2013-01-19 21:45:00,38.4,29.1,29.89,South,183,5.0,7.0,69,0.00,,OVC021,0.00,0.00,VWS V14.01,2013-01-20 02:45:00,
2013-01-19 21:50:00,38.4,29.1,29.88,South,188,2.0,7.0,69,0.00,,OVC021,0.00,0.00,VWS V14.01,2013-01-20 02:50:00,
2013-01-19 21:55:00,38.4,29.5,29.88,SSW,202,2.0,6.0,70,0.00,,OVC021,0.00,0.00,VWS V14.01,2013-01-20 02:55:00,
2013-01-19 22:00:00,38.4,29.5,29.88,South,186,3.0,6.0,70,0.00,,OVC021,0.00,0.00,VWS V14.01,2013-01-20 03:00:00,
2013-01-19 22:05:00,38.4,29.5,29.88,SSW,196,7.0,7.0,70,0.00,,OVC021,0.00,0.00,VWS V14.01,2013-01-20 03:05:00,
2013-01-19 22:10:00,38.4,29.5,29.87,SSW,201,4.0,9.0,70,0.00,,OVC021,0.00,0.00,VWS V14.01,2013-01-20 03:10:00,
2013-01-19 22:15:00,38.5,29.6,29.87,South,186,6.0,7.0,70,0.00,,OVC021,0.00,0.00,VWS V14.01,2013-01-20 03:15:00,
2013-01-19 22:20:00,38.6,29.7,29.86,SSW,212,2.0,8.0,70,0.00,,OVC021,0.00,0.00,VWS V14.01,2013-01-20 03:20:00,
2013-01-19 22:25:00,38.6,29.7,29.86,SSW,196,7.0,7.0,70,0.00,,OVC021,0.00,0.00,VWS V14.01,2013-01-20 03:25:00,
2013-01-19 22:30:00,38.5,29.9,29.86,South,182,2.0,7.0,71,0.00,,OVC021,0.00,0.00,VWS V14.01,2013-01-20 03:30:00,
2013-01-19 22:35:00,38.4,29.8,29.86,South,178,7.0,7.0,71,0.00,,OVC021,0.00,0.00,VWS V14.01,2013-01-20 03:35:00,
2013-01-19 22:40:00,38.4,29.8,29.86,SSW,200,7.0,9.0,71,0.00,,OVC021,0.00,0.00,VWS V14.01,2013-01-20 03:40:00,
2013-01-19 22:45:00,38.3,29.7,29.85,South,179,5.0,7.0,71,0.00,,OVC021,0.00,0.00,VWS V14.01,2013-01-20 03:45:00,
2013-01-19 22:50:00,38.4,29.8,29.85,SSW,205,4.0,8.0,71,0.00,,OVC021,0.00,0.00,VWS V14.01,2013-01-20 03:50:00,
2013-01-19 22:55:00,38.4,29.8,29.84,South,179,5.0,7.0,71,0.00,,OVC021,0.00,0.00,VWS V14.01,2013-01-20 03:55:00,
2013-01-19 23:00:00,38.4,29.8,29.84,South,181,7.0,10.0,71,0.00,,OVC021,0.00,0.00,VWS V14.01,2013-01-20 04:00:00,
2013-01-19 23:05:00,38.5,29.9,29.84,SSW,207,5.0,9.0,71,0.00,,OVC021,0.00,0.00,VWS V14.01,2013-01-20 04:05:00,
2013-01-19 23:10:00,38.5,29.9,29.84,South,186,2.0,8.0,71,0.00,,OVC021,0.00,0.00,VWS V14.01,2013-01-20 04:10:00,
2013-01-19 23:15:00,38.6,30.0,29.84,South,184,6.0,10.0,71,0.00,,OVC021,0.00,0.00,VWS V14.01,2013-01-20 04:15:00,
2013-01-19 23:20:00,38.7,30.1,29.83,South,179,6.0,8.0,71,0.00,,OVC021,0.00,0.00,VWS V14.01,2013-01-20 04:20:00,
2013-01-19 23:25:00,38.7,30.1,29.83,SW,222,2.0,9.0,71,0.00,,OVC021,0.00,0.00,VWS V14.01,2013-01-20 04:25:00,
2013-01-19 23:30:00,38.8,30.2,29.82,South,183,9.0,9.0,71,0.00,,OVC021,0.00,0.00,VWS V14.01,2013-01-20 04:30:00,
2013-01-19 23:35:00,38.8,30.2,29.82,SSW,209,8.0,10.0,71,0.00,,OVC021,0.00,0.00,VWS V14.01,2013-01-20 04:35:00,
2013-01-19 23:40:00,38.9,30.3,29.82,SSW,195,5.0,10.0,71,0.00,,OVC021,0.00,0.00,VWS V14.01,2013-01-20 04:40:00,
2013-01-19 23:45:00,39.0,30.4,29.82,SSW,204,1.0,13.0,71,0.00,,OVC021,0.00,0.00,VWS V14.01,2013-01-20 04:45:00,
2013-01-19 23:50:00,39.1,30.5,29.81,South,191,6.0,9.0,71,0.00,,OVC021,0.00,0.00,VWS V14.01,2013-01-20 04:50:00,
2013-01-19 23:55:00,39.2,30.6,29.81,South,180,8.0,11.0,71,0.00,,OVC021,0.00,0.00,VWS V14.01,2013-01-20 04:55:00,